Wind_Speed
12 11 10 9 9 8 7 7 7 7 7 7 7 7 7 7 7 7 7 7 7 7 7 7 8 8 8 9 9 9 10 10 11 11 12 12 12 13 13 13 13 13 14
14 13 12 11 11 10 9 9 8 8 8 8 8 8 8 8 8 9 9 9 9 9 9 9 9 9 9 10 10 10 11 11 11 12 12 13 13 13 14 14 14 15 15
16 15 14 13 12 12 11 11 10 10 10 9 9 10 10 10 10 10 10 10 10 10 10 10 10 10 10 11 11 12 12 13 13 13 13 13 14 14 15 16 16 16 16
19 18 17 16 15 14 13 13 12 11 11 11 11 11 11 11 12 12 12 12 11 11 11 11 11 11 12 12 13 13 13 14 14 14 14 14 14 15 16 17 17 17 18
22 21 19 18 17 16 15 14 14 13 12 12 12 12 12 12 12 12 12 12 12 12 12 12 12 13 13 13 14 14 14 14 14 14 14 14 15 16 17 17 18 19 19
24 23 22 20 19 18 17 16 15 15 14 13 13 13 13 13 12 13 13 13 13 13 13 13 13 14 14 14 14 14 15 15 15 15 16 16 16 17 18 19 19 19 19
26 25 24 22 20 19 18 17 17 16 15 14 14 14 14 14 13 13 14 14 14 14 14 14 15 15 15 15 15 15 16 16 16 17 17 17 17 17 18 19 20 20 20
27 27 26 24 22 21 20 19 18 17 17 16 15 15 15 15 15 14 15 15 15 15 16 16 16 16 16 16 16 16 17 17 17 17 18 18 18 18 19 20 21 21 22
29 28 27 26 25 23 22 20 19 18 18 17 17 17 16 16 16 16 16 16 17 16 17 17 17 17 17 17 17 18 18 18 18 18 18 19 19 19 20 20 21 21 22
30 29 29 28 27 25 24 23 21 20 19 19 18 18 18 18 17 17 17 18 18 17 17 18 18 18 19 19 18 19 19 19 19 19 19 20 20 20 21 21 21 22 23
32 31 29 29 28 27 26 25 23 22 21 21 20 20 20 19 19 19 19 19 19 19 19 19 19 19 19 20 20 20 20 20 21 20 20 21 21 21 22 22 22 23 24
33 33 31 30 30 29 27 26 25 24 23 22 22 22 21 21 20 20 20 20 20 20 20 21 21 21 21 21 21 22 22 22 22 22 22 22 22 23 23 23 23 24 24
34 34 33 31 31 30 29 27 26 25 25 24 24 23 23 23 22 22 22 22 21 22 22 22 22 22 23 23 23 23 24 24 23 23 23 24 24 24 24 24 24 24 24
34 34 33 33 31 31 30 29 28 27 26 26 25 25 25 24 24 24 23 23 23 24 24 24 24 24 24 25 25 25 25 25 25 25 25 25 25 25 25 25 25 25 24
35 34 33 33 32 31 31 30 30 29 28 27 27 26 26 26 26 25 25 25 25 26 26 26 26 26 26 26 26 26 26 26 26 26 26 26 25 25 25 25 25 25 24
37 35 34 33 32 32 32 31 31 30 29 29 28 27 27 27 27 27 27 27 27 27 28 27 28 28 28 28 28 27 27 27 27 26 26 26 26 26 26 26 26 26 26
37 37 35 33 33 33 32 32 32 31 30 30 29 29 29 29 29 29 29 29 29 29 29 29 29 29 30 29 29 28 28 28 28 28 28 27 27 27 27 28 28 28 28
36 36 34 32 32 32 32 32 32 32 31 31 30 30 30 30 30 30 30 31 31 30 30 30 30 31 31 30 30 30 30 29 29 29 29 29 29 30 30 30 30 30 30
35 35 34 33 33 32 32 32 33 33 32 32 32 31 31 31 31 31 31 32 32 32 31 32 31 31 31 31 31 32 31 31 30 30 31 31 32 32 32 32 32 32 33
34 35 35 35 33 33 33 33 33 33 33 33 32 32 32 32 32 32 32 33 33 33 33 32 32 32 33 33 33 33 33 32 32 32 33 33 34 34 34 35 35 35 36
34 35 36 36 34 33 32 32 31 32 33 33 32 33 33 33 33 33 34 34 34 34 34 33 34 34 34 34 34 34 34 34 34 35 35 35 35 36 36 36 37 37 38
33 33 34 34 34 33 33 31 33 33 33 33 33 33 33 33 34 33 35 35 35 35 35 35 36 36 35 35 35 35 35 36 36 37 37 38 38 38 38 38 39 39 39
32 32 32 33 34 33 34 34 34 34 34 34 34 34 35 34 34 34 35 35 36 35 36 36 36 36 36 36 36 36 36 37 38 38 39 39 39 40 40 40 40 41 41
30 31 32 32 32 33 33 34 34 34 34 33 33 34 35 35 36 36 36 37 37 37 37 37 37 37 37 37 37 37 38 39 40 40 41 41 41 42 42 42 43 43 43
29 30 31 32 33 34 34 34 35 35 35 34 35 36 37 37 38 38 38 38 38 38 39 39 39 38 39 39 39 39 40 40 41 42 41 42 43 43 43 44 44 45 45
27 28 29 31 33 34 35 35 34 34 35 36 36 36 37 38 38 39 40 40 39 40 40 40 40 40 40 41 41 41 42 42 43 43 43 44 44 44 44 45 46 47 48
Wind_Direction
242 241 242 243 242 243 248 253 254 255 256 257 258 259 263 267 272 275 282 286 290 294 297 299 299 298 298 296 295 295 294 292 290 288 287 286 285 284 284 284 284 284 283
240 239 240 242 243 243 246 249 251 253 256 260 261 263 268 271 274 276 280 282 285 288 292 296 298 298 298 298 298 298 298 295 293 291 289 287 285 284 283 284 285 285 285
240 238 238 240 243 243 246 248 250 253 255 258 260 264 269 272 275 277 280 281 283 285 288 291 294 296 297 298 299 299 298 297 295 293 292 289 287 284 283 283 283 284 284
239 237 237 239 242 243 245 247 248 252 254 257 260 264 269 272 275 277 279 280 282 284 286 289 291 294 296 297 299 298 298 297 296 295 293 292 290 288 286 284 283 283 283
238 235 235 238 240 243 244 246 248 251 253 257 260 264 269 273 274 276 278 280 282 283 285 287 290 293 295 297 297 297 297 296 294 294 293 293 292 291 290 287 285 284 283
238 236 235 237 239 241 243 245 247 250 252 256 260 264 269 272 274 275 277 279 282 284 286 288 290 292 294 295 296 296 295 293 292 292 292 293 293 292 291 288 285 286 285
238 237 235 236 238 240 242 244 246 248 251 254 258 264 267 270 272 274 276 278 282 284 286 287 289 291 292 294 294 294 294 293 292 291 291 292 293 293 293 290 286 285 286
236 236 235 236 237 239 241 242 245 247 249 252 256 261 265 268 271 271 273 277 281 283 285 286 288 288 289 292 293 293 295 295 293 290 291 292 293 294 294 293 289 285 285
234 235 236 237 237 238 240 241 244 247 249 251 255 259 262 266 268 270 272 275 279 282 285 286 287 287 287 289 290 291 293 294 292 291 291 292 294 295 295 295 292 288 285
233 235 236 237 238 238 240 241 243 246 248 252 255 258 260 264 267 269 271 274 277 280 283 285 287 287 286 287 288 290 292 292 291 291 292 293 293 295 295 294 293 291 287
233 234 236 235 236 237 239 241 242 245 248 252 255 258 260 263 266 268 270 273 275 278 282 284 286 286 286 286 287 288 290 290 290 290 291 292 293 294 294 294 293 292 289
233 233 235 235 236 237 238 240 242 245 248 252 255 257 260 262 265 267 270 272 275 277 280 283 284 285 285 285 286 288 288 289 289 289 290 291 292 292 293 293 293 292 291
231 232 234 236 235 235 238 240 242 245 248 252 255 257 259 262 264 266 269 272 275 277 279 281 282 283 284 285 286 287 287 287 287 288 289 290 290 291 292 293 293 293 292
231 231 231 234 233 233 236 239 242 245 248 251 254 257 259 261 264 266 269 272 275 277 279 280 281 283 285 285 285 286 286 286 286 287 288 288 288 289 290 291 292 293 293
232 230 230 231 233 233 236 238 241 245 248 250 253 256 259 261 263 266 269 272 275 277 279 280 281 283 284 284 284 284 285 285 285 285 285 286 287 288 289 290 290 291 291
230 229 229 228 230 233 236 238 241 244 247 249 252 256 258 261 264 266 269 272 274 276 278 279 280 282 283 284 283 282 283 284 283 284 285 286 286 287 289 289 289 289 289
230 228 226 229 230 233 236 238 240 243 247 249 252 256 258 261 264 266 268 272 274 276 278 279 279 281 283 284 282 281 282 283 284 284 284 284 284 286 287 288 288 288 288
229 228 227 230 231 233 236 237 240 243 247 250 252 256 258 261 264 266 268 271 274 276 278 279 280 281 282 282 282 280 281 282 284 283 283 283 283 285 286 287 287 286 287
230 229 227 228 232 235 236 237 239 243 248 250 253 257 259 261 263 266 268 270 273 276 278 279 280 281 281 281 281 280 280 281 283 282 282 283 283 284 285 285 286 285 286
231 230 229 230 233 235 236 238 240 244 249 251 253 257 260 261 263 265 269 271 273 276 277 278 279 281 281 281 281 280 280 280 281 282 282 282 283 284 284 285 285 285 286
231 232 233 233 235 237 238 240 242 246 249 251 254 257 260 262 263 266 268 271 273 275 276 277 278 280 280 280 280 280 279 279 280 282 282 283 283 284 284 284 284 284 285
234 235 235 234 236 238 240 245 248 249 251 253 256 260 261 263 264 265 269 270 273 275 276 277 278 279 279 279 279 280 279 279 280 282 282 283 283 283 283 284 284 284 285
235 237 237 236 238 241 244 248 251 251 254 256 259 262 264 264 265 266 268 270 274 276 277 278 279 279 280 279 279 279 279 279 281 282 283 283 282 283 283 284 284 285 285
236 238 240 240 241 244 246 249 251 254 257 259 261 264 265 266 266 268 271 274 276 278 279 278 279 280 280 280 281 281 281 281 280 281 282 283 283 283 283 284 284 285 285
238 239 241 242 243 244 248 251 254 256 259 261 263 265 266 266 268 271 273 276 278 278 279 279 279 279 279 279 280 281 282 282 282 282 283 283 283 283 282 283 284 284 285
240 242 244 245 245 246 250 253 256 259 261 264 265 267 268 269 270 272 273 276 277 279 280 280 279 279 279 279 280 281 282 283 283 283 283 282 282 283 283 283 284 284 285
Height
5870 5871 5871 5871 5872 5872 5872 5873 5873 5873 5873 5873 5873 5873 5873 5873 5873 5873 5872 5872 5871 5871 5870 5869 5869 5868 5867 5867 5866 5865 5865 5864 5864 5863 5862 5862 5862 5861 5861 5860 5860 5859 5859
5868 5868 5869 5869 5870 5870 5871 5871 5871 5871 5872 5872 5872 5872 5872 5872 5872 5871 5871 5870 5870 5869 5869 5868 5867 5867 5866 5865 5864 5864 5863 5862 5862 5861 5860 5860 5859 5859 5858 5858 5857 5857 5856
5864 5865 5866 5867 5868 5868 5869 5869 5869 5870 5870 5870 5870 5870 5870 5870 5870 5870 5869 5869 5868 5868 5867 5867 5866 5865 5864 5864 5863 5862 5861 5860 5859 5858 5858 5857 5857 5856 5856 5855 5855 5854 5854
5860 5862 5863 5864 5865 5865 5866 5867 5867 5868 5868 5868 5868 5868 5868 5868 5868 5867 5867 5867 5866 5866 5865 5865 5864 5863 5862 5862 5861 5860 5859 5858 5857 5856 5855 5854 5854 5853 5852 5852 5851 5851 5850
5856 5857 5859 5860 5861 5862 5863 5864 5865 5865 5865 5866 5866 5866 5866 5865 5865 5865 5865 5864 5864 5864 5863 5863 5862 5861 5860 5859 5858 5857 5856 5855 5854 5853 5852 5851 5851 5850 5849 5848 5848 5847 5847
5851 5852 5854 5856 5857 5859 5860 5861 5862 5862 5863 5863 5863 5863 5863 5863 5863 5863 5862 5862 5862 5861 5861 5860 5860 5859 5858 5857 5856 5855 5853 5852 5851 5850 5849 5848 5848 5847 5846 5845 5844 5844 5843
5845 5847 5850 5851 5853 5855 5856 5857 5858 5859 5860 5860 5860 5860 5860 5860 5860 5860 5860 5860 5860 5859 5858 5858 5857 5856 5855 5854 5853 5852 5851 5849 5848 5847 5846 5845 5844 5843 5842 5841 5840 5839 5839
5839 5842 5844 5846 5848 5850 5852 5853 5854 5855 5856 5857 5857 5857 5857 5857 5858 5857 5857 5857 5857 5856 5856 5855 5854 5853 5852 5851 5850 5849 5848 5846 5845 5844 5843 5842 5841 5840 5838 5837 5836 5835 5834
5833 5836 5839 5841 5843 5845 5847 5849 5850 5851 5852 5853 5853 5854 5854 5854 5854 5854 5854 5854 5854 5853 5852 5852 5851 5850 5849 5848 5847 5846 5845 5843 5842 5841 5840 5839 5837 5836 5834 5833 5832 5831 5830
5827 5830 5832 5836 5838 5840 5842 5844 5846 5847 5848 5849 5850 5850 5851 5851 5851 5851 5851 5850 5850 5850 5849 5848 5847 5847 5846 5845 5844 5843 5841 5840 5838 5837 5836 5835 5833 5832 5830 5829 5828 5826 5826
5820 5824 5826 5829 5832 5835 5837 5839 5841 5843 5844 5845 5846 5846 5847 5847 5847 5847 5847 5847 5846 5846 5845 5844 5844 5843 5842 5841 5840 5839 5837 5836 5835 5834 5832 5831 5829 5828 5826 5825 5824 5822 5821
5814 5817 5820 5823 5826 5829 5831 5834 5836 5838 5839 5840 5841 5842 5842 5843 5843 5843 5843 5843 5842 5842 5841 5840 5840 5839 5838 5837 5836 5835 5833 5832 5831 5829 5828 5827 5825 5824 5822 5820 5819 5818 5816
5806 5809 5813 5817 5820 5823 5826 5828 5831 5833 5834 5835 5836 5837 5838 5838 5838 5839 5839 5838 5838 5837 5837 5836 5835 5834 5833 5833 5831 5830 5829 5827 5826 5825 5823 5822 5820 5819 5817 5816 5814 5813 5811
5799 5802 5807 5810 5813 5817 5820 5822 5825 5827 5829 5830 5831 5832 5833 5833 5834 5834 5834 5834 5833 5833 5832 5831 5830 5830 5829 5828 5827 5825 5824 5822 5821 5820 5818 5817 5815 5814 5812 5811 5809 5808 5806
5791 5795 5800 5804 5807 5810 5813 5816 5819 5821 5823 5824 5826 5827 5827 5828 5828 5828 5829 5828 5828 5827 5827 5826 5825 5824 5823 5822 5821 5820 5819 5817 5816 5814 5813 5811 5810 5808 5807 5805 5804 5802 5801
5784 5789 5793 5797 5800 5804 5807 5810 5812 5815 5817 5818 5820 5821 5822 5822 5823 5823 5823 5823 5822 5822 5821 5820 5819 5818 5818 5816 5815 5814 5813 5811 5810 5809 5807 5806 5804 5803 5801 5800 5798 5797 5795
5778 5782 5787 5790 5794 5797 5800 5803 5806 5808 5810 5812 5814 5815 5815 5816 5816 5817 5817 5817 5816 5815 5815 5814 5813 5812 5811 5810 5809 5808 5807 5806 5804 5803 5801 5800 5798 5797 5796 5794 5793 5791 5789
5772 5776 5780 5783 5787 5791 5794 5797 5799 5801 5804 5806 5807 5808 5809 5810 5810 5810 5810 5810 5810 5809 5808 5808 5807 5806 5805 5804 5803 5802 5801 5799 5798 5797 5795 5794 5792 5791 5789 5788 5786 5784 5783
5767 5770 5774 5777 5781 5784 5787 5790 5792 5795 5797 5798 5800 5801 5802 5803 5803 5803 5803 5803 5803 5802 5802 5801 5800 5799 5798 5797 5796 5795 5794 5793 5791 5790 5788 5787 5785 5784 5782 5780 5779 5777 5775
5761 5765 5768 5772 5775 5777 5781 5783 5786 5788 5790 5791 5793 5794 5795 5795 5796 5796 5796 5796 5795 5795 5794 5793 5793 5792 5791 5790 5789 5788 5787 5786 5784 5783 5781 5780 5778 5776 5775 5773 5771 5769 5767
5756 5760 5763 5766 5769 5772 5775 5776 5779 5781 5783 5784 5786 5787 5788 5788 5788 5788 5789 5788 5788 5787 5787 5786 5785 5784 5783 5782 5781 5780 5779 5778 5776 5775 5773 5771 5770 5768 5766 5765 5763 5761 5759
5750 5754 5757 5760 5763 5766 5769 5771 5773 5775 5776 5777 5778 5779 5780 5780 5780 5781 5781 5780 5780 5779 5779 5778 5777 5776 5775 5774 5773 5772 5771 5770 5768 5766 5765 5763 5761 5759 5758 5756 5754 5751 5749
5745 5748 5751 5754 5757 5760 5763 5766 5767 5768 5769 5771 5771 5772 5772 5772 5772 5773 5772 5772 5772 5771 5771 5770 5769 5768 5767 5766 5765 5764 5762 5761 5760 5758 5756 5754 5752 5750 5748 5746 5744 5742 5740
5738 5742 5745 5748 5751 5754 5756 5759 5760 5761 5762 5763 5764 5764 5764 5764 5764 5764 5764 5764 5764 5763 5762 5761 5760 5759 5758 5757 5756 5754 5753 5752 5751 5749 5747 5745 5742 5740 5738 5736 5734 5731 5729
5732 5736 5739 5742 5745 5747 5750 5752 5753 5755 5755 5756 5756 5756 5756 5756 5756 5756 5756 5755 5755 5754 5753 5752 5751 5750 5749 5747 5746 5745 5743 5742 5740 5739 5738 5735 5732 5730 5727 5725 5722 5720 5717
5728 5730 5733 5736 5738 5741 5743 5745 5746 5747 5748 5748 5748 5748 5748 5748 5747 5747 5747 5746 5745 5744 5744 5743 5741 5740 5739 5738 5736 5735 5733 5731 5730 5728 5727 5724 5722 5719 5716 5713 5711 5708 5705